,,PA_Meas_PMT16A,,PR_Meas_QMR101_102,,RH_Meas_QMH101,,SR_Meas_QMS101,,TA_Meas_QMH101,,GenWind,,GenWind,
time,status,PA,status,PR,status,RH,status,SR,status,TA,status,DirAvg,status,SpdAvg,
2011-01-07, 00:00:05,VALID,917.544,VALID,0,VALID,94.1797,VALID,0,VALID,19.3308,VALID,355,VALID,0,
2011-01-07, 00:01:05,VALID,917.536,VALID,0,VALID,94.3017,VALID,0.107441,VALID,19.3128,VALID,355,VALID,0,
2011-01-07, 00:02:05,VALID,917.578,VALID,0,VALID,94.4541,VALID,0,VALID,19.3128,VALID,355,VALID,0,
2011-01-07, 00:03:05,VALID,917.593,VALID,0,VALID,94.5837,VALID,0,VALID,19.2933,VALID,355,VALID,0.330469,
2011-01-07, 00:04:05,VALID,917.62,VALID,0,VALID,94.6142,VALID,0,VALID,19.2543,VALID,355,VALID,0.471875,
2011-01-07, 00:05:05,VALID,917.618,VALID,0,VALID,94.7743,VALID,0,VALID,19.2348,VALID,355,VALID,0.550781,
2011-01-07, 00:06:05,VALID,917.63,VALID,0,VALID,94.7896,VALID,0,VALID,19.2348,VALID,355,VALID,0.271875,
2011-01-07, 00:07:05,VALID,917.612,VALID,0,VALID,94.6295,VALID,0,VALID,19.2153,VALID,355,VALID,0.259766,
2011-01-07, 00:08:05,VALID,917.614,VALID,0,VALID,94.5685,VALID,0,VALID,19.2153,VALID,355,VALID,0.272656,
2011-01-07, 00:09:05,VALID,917.631,VALID,0,VALID,94.5837,VALID,0,VALID,19.2558,VALID,355,VALID,0.428516,
2011-01-07, 00:10:05,VALID,917.622,VALID,0,VALID,94.4008,VALID,0,VALID,19.2738,VALID,355,VALID,0.271875,
2011-01-07, 00:11:05,VALID,917.655,VALID,0,VALID,94.0043,VALID,0,VALID,19.3323,VALID,355,VALID,0.546484,
2011-01-07, 00:12:05,VALID,917.665,VALID,0,VALID,93.5088,VALID,0,VALID,19.3713,VALID,355,VALID,0.552344,
2011-01-07, 00:13:05,VALID,917.667,VALID,0,VALID,93.2191,VALID,0,VALID,19.4088,VALID,355,VALID,0.579687,
2011-01-07, 00:14:05,VALID,917.692,VALID,0,VALID,92.8227,VALID,0.107441,VALID,19.4883,VALID,355,VALID,0.448047,
2011-01-07, 00:15:05,VALID,917.691,VALID,0,VALID,92.5102,VALID,0,VALID,19.5063,VALID,355,VALID,0.277734,
2011-01-07, 00:16:05,VALID,917.654,VALID,0,VALID,92.2662,VALID,0,VALID,19.5258,VALID,355,VALID,0.382813,
2011-01-07, 00:17:05,VALID,917.646,VALID,0,VALID,92.2738,VALID,0,VALID,19.5258,VALID,355,VALID,0.365234,
2011-01-07, 00:18:05,VALID,917.618,VALID,0,VALID,92.1137,VALID,0.107441,VALID,19.5273,VALID,355,VALID,0.424219,
2011-01-07, 00:19:05,VALID,917.615,VALID,0,VALID,92.3577,VALID,0,VALID,19.5078,VALID,355,VALID,0.378125,
2011-01-07, 00:20:05,VALID,917.565,VALID,0,VALID,92.4492,VALID,0,VALID,19.4883,VALID,355,VALID,0.545703,
2011-01-07, 00:21:05,VALID,917.558,VALID,0,VALID,92.1747,VALID,0,VALID,19.4688,VALID,355,VALID,0.369531,
2011-01-07, 00:22:05,VALID,917.56,VALID,0,VALID,92.5635,VALID,0,VALID,19.4478,VALID,355,VALID,0.605859,
2011-01-07, 00:23:05,VALID,917.588,VALID,0,VALID,92.5559,VALID,0.107441,VALID,19.4478,VALID,355,VALID,0.332422,
2011-01-07, 00:24:05,VALID,917.6,VALID,0,VALID,92.4492,VALID,0,VALID,19.4673,VALID,355,VALID,0.266406,
2011-01-07, 00:25:05,VALID,917.564,VALID,0,VALID,92.4568,VALID,0,VALID,19.4883,VALID,355,VALID,0.148047,
2011-01-07, 00:26:05,VALID,917.612,VALID,0,VALID,92.3348,VALID,0,VALID,19.5078,VALID,355,VALID,0.0269531,
2011-01-07, 00:27:05,VALID,917.565,VALID,0,VALID,92.2128,VALID,0,VALID,19.5273,VALID,355,VALID,0.246484,
2011-01-07, 00:28:05,VALID,917.567,VALID,0,VALID,91.9689,VALID,0,VALID,19.5258,VALID,355,VALID,0.106641,
2011-01-07, 00:29:05,VALID,917.546,VALID,0,VALID,91.7402,VALID,0,VALID,19.5468,VALID,355,VALID,0,
2011-01-07, 00:30:05,VALID,917.554,VALID,0,VALID,91.7859,VALID,0,VALID,19.5468,VALID,355,VALID,0,
2011-01-07, 00:31:05,VALID,917.541,VALID,0,VALID,91.7173,VALID,0,VALID,19.5453,VALID,355,VALID,0,
2011-01-07, 00:32:05,VALID,917.521,VALID,0,VALID,91.5191,VALID,0,VALID,19.5663,VALID,355,VALID,0,
2011-01-07, 00:33:05,VALID,917.507,VALID,0,VALID,91.481,VALID,0,VALID,19.5858,VALID,355,VALID,0.0117188,
2011-01-07, 00:34:05,VALID,917.493,VALID,0,VALID,91.3514,VALID,0,VALID,19.5858,VALID,355,VALID,0.04375,
2011-01-07, 00:35:05,VALID,917.494,VALID,0,VALID,91.3057,VALID,0.107441,VALID,19.5858,VALID,355,VALID,0,
2011-01-07, 00:36:05,VALID,917.452,VALID,0,VALID,91.2066,VALID,0,VALID,19.5648,VALID,355,VALID,0.00429688,
2011-01-07, 00:37:05,VALID,917.429,VALID,0,VALID,91.1989,VALID,0,VALID,19.5858,VALID,355,VALID,0,
2011-01-07, 00:38:05,VALID,917.429,VALID,0,VALID,91.1761,VALID,0,VALID,19.5648,VALID,355,VALID,0.188281,
2011-01-07, 00:39:05,VALID,917.402,VALID,0,VALID,91.1303,VALID,0,VALID,19.5453,VALID,355,VALID,0,
2011-01-07, 00:40:05,VALID,917.361,VALID,0,VALID,90.8711,VALID,0,VALID,19.5468,VALID,355,VALID,0.194141,
2011-01-07, 00:41:05,VALID,917.337,VALID,0,VALID,91.0846,VALID,0,VALID,19.5258,VALID,355,VALID,0.294141,
2011-01-07, 00:42:05,VALID,917.302,VALID,0,VALID,91.0998,VALID,0,VALID,19.5663,VALID,355,VALID,0,
2011-01-07, 00:43:05,VALID,917.257,VALID,0,VALID,90.7415,VALID,0,VALID,19.5663,VALID,355,VALID,0.169141,
2011-01-07, 00:44:05,VALID,917.223,VALID,0,VALID,90.6119,VALID,0,VALID,19.5468,VALID,355,VALID,0.435937,
2011-01-07, 00:45:05,VALID,917.197,VALID,0,VALID,90.9016,VALID,0.107441,VALID,19.5273,VALID,355,VALID,0.413672,
2011-01-07, 00:46:05,VALID,917.165,VALID,0,VALID,90.65,VALID,0.107441,VALID,19.4883,VALID,355,VALID,0.0910156,
2011-01-07, 00:47:05,VALID,917.156,VALID,0,VALID,91.0846,VALID,0,VALID,19.4688,VALID,355,VALID,0.207031,
2011-01-07, 00:48:05,VALID,917.116,VALID,0,VALID,91.2523,VALID,0,VALID,19.4688,VALID,355,VALID,0.125781,
2011-01-07, 00:49:05,VALID,917.091,VALID,0,VALID,91.3895,VALID,0,VALID,19.4298,VALID,355,VALID,0.223828,
2011-01-07, 00:50:05,VALID,917.077,VALID,0,VALID,91.237,VALID,0,VALID,19.3698,VALID,355,VALID,0.398828,
2011-01-07, 00:51:05,VALID,917.073,VALID,0,VALID,90.4442,VALID,0,VALID,19.3128,VALID,355,VALID,0.370703,
2011-01-07, 00:52:05,VALID,917.073,VALID,0,VALID,91.0846,VALID,0,VALID,19.2153,VALID,355,VALID,0.329688,
2011-01-07, 00:53:05,VALID,917.061,VALID,0,VALID,91.9689,VALID,0,VALID,19.1164,VALID,355,VALID,0.341406,
2011-01-07, 00:54:05,VALID,917.047,VALID,0,VALID,92.4263,VALID,0,VALID,19.0398,VALID,355,VALID,0.226563,
2011-01-07, 00:55:05,VALID,917.026,VALID,0,VALID,92.8608,VALID,0,VALID,19.0203,VALID,355,VALID,0.417969,
2011-01-07, 00:56:05,VALID,917.027,VALID,0,VALID,92.9752,VALID,0,VALID,18.9814,VALID,355,VALID,0.467969,
2011-01-07, 00:57:05,VALID,916.988,VALID,0,VALID,93.0362,VALID,0,VALID,18.9424,VALID,355,VALID,0.564844,
2011-01-07, 00:58:05,VALID,916.98,VALID,0,VALID,93.0438,VALID,0,VALID,18.8824,VALID,355,VALID,0.529297,
2011-01-07, 00:59:05,VALID,916.937,VALID,0,VALID,93.5393,VALID,0,VALID,18.8839,VALID,355,VALID,0.392188,
2011-01-07, 01:00:05,VALID,916.936,VALID,0,VALID,93.829,VALID,0.107441,VALID,18.9034,VALID,355,VALID,0.292578,
2011-01-07, 01:01:05,VALID,916.941,VALID,0,VALID,93.9891,VALID,0,VALID,18.9229,VALID,355,VALID,0.548828,
2011-01-07, 01:02:05,VALID,916.928,VALID,0,VALID,93.8671,VALID,0,VALID,18.9229,VALID,355,VALID,0.613672,
2011-01-07, 01:03:05,VALID,916.909,VALID,0,VALID,93.6918,VALID,0,VALID,18.9229,VALID,355,VALID,0.475781,
2011-01-07, 01:04:05,VALID,916.902,VALID,0,VALID,93.9738,VALID,0,VALID,18.9424,VALID,355,VALID,0.849609,
2011-01-07, 01:05:05,VALID,916.882,VALID,0,VALID,93.9738,VALID,0,VALID,18.9424,VALID,355,VALID,0.449219,
2011-01-07, 01:06:05,VALID,916.828,VALID,0,VALID,93.8443,VALID,0,VALID,18.9633,VALID,355,VALID,0.379297,
2011-01-07, 01:07:05,VALID,916.841,VALID,0,VALID,93.7451,VALID,0.107441,VALID,18.9619,VALID,355,VALID,0,
2011-01-07, 01:08:05,VALID,916.83,VALID,0,VALID,93.7756,VALID,0.107441,VALID,18.9814,VALID,355,VALID,0.323438,
2011-01-07, 01:09:05,VALID,916.822,VALID,0,VALID,93.5774,VALID,0,VALID,18.9619,VALID,355,VALID,0.321875,
2011-01-07, 01:10:05,VALID,916.81,VALID,0,VALID,93.6079,VALID,0,VALID,18.9619,VALID,355,VALID,0.175,
2011-01-07, 01:11:05,VALID,916.79,VALID,0,VALID,93.5164,VALID,0,VALID,18.9424,VALID,355,VALID,0.214844,
2011-01-07, 01:12:05,VALID,916.805,VALID,0,VALID,93.7985,VALID,0,VALID,18.9619,VALID,355,VALID,0.316406,
2011-01-07, 01:13:05,VALID,916.791,VALID,0,VALID,93.7985,VALID,0,VALID,19.0023,VALID,355,VALID,0,
2011-01-07, 01:14:05,VALID,916.811,VALID,0,VALID,93.707,VALID,0,VALID,18.9814,VALID,355,VALID,0.0980469,
2011-01-07, 01:15:05,VALID,916.83,VALID,0,VALID,93.5241,VALID,0,VALID,18.9828,VALID,355,VALID,0.028125,
2011-01-07, 01:16:05,VALID,916.788,VALID,0,VALID,93.768,VALID,0,VALID,19.0008,VALID,355,VALID,0.275781,
2011-01-07, 01:17:05,VALID,916.78,VALID,0,VALID,93.6155,VALID,0,VALID,19.0203,VALID,355,VALID,0.0976563,
2011-01-07, 01:18:05,VALID,916.764,VALID,0,VALID,93.7528,VALID,0,VALID,19.0593,VALID,355,VALID,0.339844,
2011-01-07, 01:19:05,VALID,916.721,VALID,0,VALID,94.0043,VALID,0,VALID,19.0788,VALID,355,VALID,0.437109,
2011-01-07, 01:20:05,VALID,916.724,VALID,0,VALID,93.768,VALID,0.107441,VALID,19.0774,VALID,355,VALID,0.347656,
2011-01-07, 01:21:05,VALID,916.693,VALID,0,VALID,92.777,VALID,0,VALID,19.0593,VALID,355,VALID,0.000390625,
2011-01-07, 01:22:05,VALID,916.718,VALID,0,VALID,93.2344,VALID,0,VALID,19.0788,VALID,355,VALID,0.363281,
2011-01-07, 01:23:05,VALID,916.729,VALID,0,VALID,93.646,VALID,0,VALID,19.0788,VALID,355,VALID,0.374609,
2011-01-07, 01:24:05,VALID,916.718,VALID,0,VALID,94.1263,VALID,0,VALID,19.0788,VALID,355,VALID,0.325,
2011-01-07, 01:25:05,VALID,916.729,VALID,0,VALID,94.3931,VALID,0,VALID,19.0788,VALID,355,VALID,0.0347656,
2011-01-07, 01:26:05,VALID,916.683,VALID,0,VALID,94.6218,VALID,0,VALID,19.0983,VALID,355,VALID,0.00351562,
2011-01-07, 01:27:05,VALID,916.66,VALID,0,VALID,94.2102,VALID,0,VALID,19.0593,VALID,355,VALID,0,
2011-01-07, 01:28:05,VALID,916.638,VALID,0,VALID,93.4478,VALID,0,VALID,18.9619,VALID,355,VALID,0,
2011-01-07, 01:29:05,VALID,916.638,VALID,0,VALID,93.9738,VALID,0,VALID,18.9619,VALID,355,VALID,0.236719,
2011-01-07, 01:30:05,VALID,916.635,VALID,0,VALID,94.4922,VALID,0,VALID,18.9828,VALID,355,VALID,0.373437,
2011-01-07, 01:31:05,VALID,916.617,VALID,0,VALID,94.0425,VALID,0,VALID,18.9438,VALID,355,VALID,0.282031,
2011-01-07, 01:32:05,VALID,916.605,VALID,0,VALID,94.0043,VALID,0,VALID,18.9048,VALID,355,VALID,0.479688,
2011-01-07, 01:33:05,VALID,916.577,VALID,0,VALID,94.3626,VALID,0,VALID,18.8839,VALID,355,VALID,0.38125,
2011-01-07, 01:34:05,VALID,916.562,VALID,0,VALID,94.6828,VALID,0,VALID,18.9034,VALID,355,VALID,0.533203,
2011-01-07, 01:35:05,VALID,916.551,VALID,0,VALID,94.5304,VALID,0,VALID,18.9048,VALID,355,VALID,0.253906,
2011-01-07, 01:36:05,VALID,916.553,VALID,0,VALID,94.6142,VALID,0,VALID,18.9034,VALID,355,VALID,0.261328,
2011-01-07, 01:37:05,VALID,916.577,VALID,0,VALID,94.7591,VALID,0,VALID,18.9424,VALID,355,VALID,0.102344,
2011-01-07, 01:38:05,VALID,916.538,VALID,0,VALID,94.8124,VALID,0,VALID,18.9814,VALID,355,VALID,0,
2011-01-07, 01:39:05,VALID,916.515,VALID,0,VALID,94.7362,VALID,0,VALID,18.9814,VALID,355,VALID,0.182812,
2011-01-07, 01:40:05,VALID,916.479,VALID,0,VALID,94.8658,VALID,0,VALID,19.0008,VALID,355,VALID,0.289844,
2011-01-07, 01:41:05,VALID,916.428,VALID,0,VALID,94.7591,VALID,0,VALID,19.0218,VALID,355,VALID,0.171094,
2011-01-07, 01:42:05,VALID,916.409,VALID,0,VALID,94.6218,VALID,0,VALID,18.9619,VALID,355,VALID,0,
2011-01-07, 01:43:05,VALID,916.345,VALID,0,VALID,94.7057,VALID,0.107441,VALID,18.9814,VALID,355,VALID,0.0492188,
2011-01-07, 01:44:05,VALID,916.37,VALID,0,VALID,94.8277,VALID,0,VALID,18.9814,VALID,355,VALID,0.545313,
2011-01-07, 01:45:05,VALID,916.337,VALID,0,VALID,94.8582,VALID,0,VALID,18.9619,VALID,355,VALID,0.688281,
2011-01-07, 01:46:05,VALID,916.347,VALID,0,VALID,94.9954,VALID,0,VALID,18.9229,VALID,355,VALID,0.603125,
2011-01-07, 01:47:05,VALID,916.297,VALID,0,VALID,95.0869,VALID,0,VALID,18.9424,VALID,355,VALID,0.441797,
2011-01-07, 01:48:05,VALID,916.292,VALID,0,VALID,95.186,VALID,0,VALID,18.9438,VALID,355,VALID,0,
2011-01-07, 01:49:05,VALID,916.253,VALID,0,VALID,95.2317,VALID,0,VALID,18.9424,VALID,355,VALID,0,
2011-01-07, 01:50:05,VALID,916.246,VALID,0,VALID,95.2317,VALID,0,VALID,18.9229,VALID,355,VALID,0.451172,
2011-01-07, 01:51:05,VALID,916.243,VALID,0,VALID,95.2165,VALID,0,VALID,18.9229,VALID,355,VALID,0.667578,
2011-01-07, 01:52:05,VALID,916.245,VALID,0,VALID,95.2622,VALID,0,VALID,18.9034,VALID,355,VALID,0,
2011-01-07, 01:53:05,VALID,916.259,VALID,0,VALID,95.2622,VALID,0,VALID,18.9438,VALID,355,VALID,0.108203,
2011-01-07, 01:54:05,VALID,916.222,VALID,0,VALID,95.2317,VALID,0,VALID,18.9424,VALID,355,VALID,0,
2011-01-07, 01:55:05,VALID,916.166,VALID,0,VALID,95.1174,VALID,0,VALID,18.9229,VALID,355,VALID,0.408203,
2011-01-07, 01:56:05,VALID,916.155,VALID,0,VALID,95.1402,VALID,0,VALID,18.9229,VALID,355,VALID,0.161328,
2011-01-07, 01:57:05,VALID,916.157,VALID,0,VALID,95.0411,VALID,0,VALID,18.9229,VALID,355,VALID,0.0949219,
2011-01-07, 01:58:05,VALID,916.123,VALID,0,VALID,94.9954,VALID,0,VALID,18.9034,VALID,355,VALID,0.199609,
2011-01-07, 01:59:05,VALID,916.094,VALID,0,VALID,94.8963,VALID,0,VALID,18.9034,VALID,355,VALID,0.724609,
2011-01-07, 02:00:05,VALID,916.074,VALID,0,VALID,94.9801,VALID,0,VALID,18.8853,VALID,355,VALID,0.646484,
2011-01-07, 02:01:05,VALID,916.034,VALID,0,VALID,95.1174,VALID,0,VALID,18.8853,VALID,355,VALID,0.683594,
2011-01-07, 02:02:05,VALID,915.997,VALID,0,VALID,95.0259,VALID,0,VALID,18.8839,VALID,355,VALID,1.12969,
2011-01-07, 02:03:05,VALID,915.95,VALID,0,VALID,94.8734,VALID,0,VALID,18.9034,VALID,355,VALID,0.908203,
2011-01-07, 02:04:05,VALID,915.89,VALID,0,VALID,94.6905,VALID,0,VALID,18.9034,VALID,8,VALID,1.20078,
2011-01-07, 02:05:05,VALID,915.845,VALID,0,VALID,94.4465,VALID,0,VALID,18.9424,VALID,340,VALID,1.43516,
2011-01-07, 02:06:05,VALID,915.816,VALID,0,VALID,93.8824,VALID,0,VALID,19.0203,VALID,13,VALID,1.33984,
2011-01-07, 02:07:05,VALID,915.787,VALID,0,VALID,93.1658,VALID,0,VALID,19.0788,VALID,11,VALID,1.0957,
2011-01-07, 02:08:05,VALID,915.806,VALID,0,VALID,92.9218,VALID,0,VALID,19.1373,VALID,2,VALID,1.08047,
2011-01-07, 02:09:05,VALID,915.791,VALID,0,VALID,92.6397,VALID,0,VALID,19.1583,VALID,2,VALID,0.523828,
2011-01-07, 02:10:05,VALID,915.78,VALID,0,VALID,92.6016,VALID,0,VALID,19.1973,VALID,2,VALID,0.760938,
2011-01-07, 02:11:05,VALID,915.777,VALID,0,VALID,92.6626,VALID,0,VALID,19.1763,VALID,2,VALID,0.381641,
2011-01-07, 02:12:05,VALID,915.736,VALID,0,VALID,92.8913,VALID,0,VALID,19.1373,VALID,2,VALID,1.12227,
2011-01-07, 02:13:05,VALID,915.665,VALID,0,VALID,93.1048,VALID,0,VALID,19.0983,VALID,2,VALID,1.00273,
2011-01-07, 02:14:05,VALID,915.69,VALID,0,VALID,93.1429,VALID,0,VALID,19.0398,VALID,358,VALID,1.28594,
2011-01-07, 02:15:05,VALID,915.65,VALID,0,VALID,93.3182,VALID,0,VALID,19.0608,VALID,1,VALID,0.996875,
2011-01-07, 02:16:05,VALID,915.576,VALID,0,VALID,93.3945,VALID,0,VALID,19.0398,VALID,1,VALID,0.963281,
2011-01-07, 02:17:05,VALID,915.55,VALID,0,VALID,93.3564,VALID,0,VALID,19.0203,VALID,360,VALID,0.823828,
2011-01-07, 02:18:05,VALID,915.529,VALID,0,VALID,93.7833,VALID,0,VALID,19.0008,VALID,1,VALID,0.579297,
2011-01-07, 02:19:05,VALID,915.525,VALID,0,VALID,93.9357,VALID,0,VALID,18.9814,VALID,1,VALID,0.628906,
2011-01-07, 02:20:05,VALID,915.574,VALID,0,VALID,93.6537,VALID,0,VALID,18.9424,VALID,1,VALID,1.11328,
2011-01-07, 02:21:05,VALID,915.616,VALID,0,VALID,93.6232,VALID,0,VALID,18.9619,VALID,1,VALID,0.44375,
2011-01-07, 02:22:05,VALID,915.614,VALID,0,VALID,93.8595,VALID,0,VALID,18.9814,VALID,1,VALID,0.320313,
2011-01-07, 02:23:05,VALID,915.577,VALID,0,VALID,93.7985,VALID,0,VALID,18.9814,VALID,1,VALID,0.692969,
2011-01-07, 02:24:05,VALID,915.548,VALID,0,VALID,93.6232,VALID,0,VALID,18.9814,VALID,1,VALID,0.660937,
2011-01-07, 02:25:05,VALID,915.513,VALID,0,VALID,93.5241,VALID,0,VALID,18.9814,VALID,1,VALID,0.837891,
2011-01-07, 02:26:05,VALID,915.518,VALID,0,VALID,93.4783,VALID,0,VALID,18.9814,VALID,299,VALID,1.46367,
2011-01-07, 02:27:05,VALID,915.535,VALID,0,VALID,93.0438,VALID,0,VALID,19.0593,VALID,12,VALID,1.06016,
2011-01-07, 02:28:05,VALID,915.502,VALID,0,VALID,92.8303,VALID,0,VALID,19.0983,VALID,354,VALID,0.953516,
2011-01-07, 02:29:05,VALID,915.467,VALID,0,VALID,92.7236,VALID,0,VALID,19.0983,VALID,354,VALID,0.849219,
2011-01-07, 02:30:05,VALID,915.461,VALID,0,VALID,92.7312,VALID,0,VALID,19.0983,VALID,346,VALID,1.17344,
2011-01-07, 02:31:05,VALID,915.47,VALID,0,VALID,92.655,VALID,0,VALID,19.0983,VALID,24,VALID,1.19609,
2011-01-07, 02:32:05,VALID,915.491,VALID,0,VALID,92.533,VALID,0,VALID,19.1178,VALID,24,VALID,0.607813,
2011-01-07, 02:33:05,VALID,915.508,VALID,0,VALID,92.7846,VALID,0,VALID,19.0983,VALID,24,VALID,0.746875,
2011-01-07, 02:34:05,VALID,915.497,VALID,0,VALID,92.8456,VALID,0,VALID,19.1178,VALID,22,VALID,1.06328,
2011-01-07, 02:35:05,VALID,915.498,VALID,0,VALID,92.8075,VALID,0,VALID,19.1178,VALID,13,VALID,0.997656,
2011-01-07, 02:36:05,VALID,915.502,VALID,0,VALID,92.5788,VALID,0,VALID,19.1388,VALID,13,VALID,0.983594,
2011-01-07, 02:37:04,VALID,915.47,VALID,0,VALID,92.6626,VALID,0,VALID,19.0983,VALID,13,VALID,1.03281,
2011-01-07, 02:38:04,VALID,915.459,VALID,0,VALID,92.7541,VALID,0,VALID,19.0998,VALID,11,VALID,1.53477,
2011-01-07, 02:39:04,VALID,915.456,VALID,0,VALID,92.716,VALID,0,VALID,19.0593,VALID,8,VALID,1.32813,
2011-01-07, 02:40:04,VALID,915.484,VALID,0,VALID,92.7465,VALID,0,VALID,19.0608,VALID,8,VALID,0.673437,
2011-01-07, 02:41:04,VALID,915.502,VALID,0,VALID,92.9218,VALID,0,VALID,19.0593,VALID,8,VALID,0.79375,
2011-01-07, 02:42:04,VALID,915.498,VALID,0,VALID,93.0209,VALID,0,VALID,19.0593,VALID,8,VALID,0.704297,
2011-01-07, 02:43:04,VALID,915.518,VALID,0,VALID,93.0819,VALID,0,VALID,19.0803,VALID,8,VALID,0.523438,
2011-01-07, 02:44:04,VALID,915.47,VALID,0,VALID,93.1658,VALID,0,VALID,19.0593,VALID,8,VALID,0.584766,
2011-01-07, 02:45:04,VALID,915.437,VALID,0,VALID,93.364,VALID,0,VALID,19.0593,VALID,8,VALID,0.421094,
2011-01-07, 02:46:04,VALID,915.456,VALID,0,VALID,93.4936,VALID,0,VALID,19.0398,VALID,8,VALID,0.374609,
2011-01-07, 02:47:04,VALID,915.43,VALID,0,VALID,93.6384,VALID,0,VALID,19.0398,VALID,342,VALID,0.857422,
2011-01-07, 02:48:04,VALID,915.417,VALID,0,VALID,93.6308,VALID,0,VALID,19.0413,VALID,305,VALID,0.631641,
2011-01-07, 02:49:04,VALID,915.445,VALID,0,VALID,93.425,VALID,0,VALID,19.0203,VALID,305,VALID,0.502344,
2011-01-07, 02:50:04,VALID,915.431,VALID,0,VALID,93.4555,VALID,0,VALID,19.0398,VALID,305,VALID,0.304297,
2011-01-07, 02:51:04,VALID,915.421,VALID,0,VALID,93.4707,VALID,0,VALID,19.0398,VALID,305,VALID,0.498047,
2011-01-07, 02:52:04,VALID,915.409,VALID,0,VALID,93.646,VALID,0,VALID,19.0008,VALID,305,VALID,0.0832031,
2011-01-07, 02:53:04,VALID,915.383,VALID,0,VALID,93.8443,VALID,0,VALID,18.9814,VALID,305,VALID,0.157422,
2011-01-07, 02:54:04,VALID,915.316,VALID,0,VALID,94.0043,VALID,0,VALID,18.9814,VALID,305,VALID,0.292969,
2011-01-07, 02:55:04,VALID,915.283,VALID,0,VALID,94.0958,VALID,0,VALID,18.9619,VALID,306,VALID,0.483984,
2011-01-07, 02:56:04,VALID,915.317,VALID,0,VALID,94.1492,VALID,0,VALID,18.9424,VALID,305,VALID,0.545703,
2011-01-07, 02:57:04,VALID,915.298,VALID,0,VALID,94.1797,VALID,0,VALID,18.9229,VALID,306,VALID,0.0195313,
2011-01-07, 02:58:04,VALID,915.299,VALID,0,VALID,94.2712,VALID,0,VALID,18.9229,VALID,306,VALID,0.563672,
2011-01-07, 02:59:04,VALID,915.276,VALID,0,VALID,94.3474,VALID,0,VALID,18.9034,VALID,306,VALID,0.40625,
2011-01-07, 03:00:04,VALID,915.285,VALID,0,VALID,94.4008,VALID,0,VALID,18.8254,VALID,305,VALID,0.337109,
2011-01-07, 03:01:04,VALID,915.274,VALID,0,VALID,94.4465,VALID,0,VALID,18.7864,VALID,306,VALID,0.4625,
2011-01-07, 03:02:04,VALID,915.253,VALID,0,VALID,94.5685,VALID,0,VALID,18.7878,VALID,306,VALID,0,
2011-01-07, 03:03:04,VALID,915.238,VALID,0,VALID,94.7667,VALID,0,VALID,18.7474,VALID,306,VALID,0,
2011-01-07, 03:04:04,VALID,915.234,VALID,0,VALID,94.8887,VALID,0,VALID,18.7474,VALID,306,VALID,0.235547,
2011-01-07, 03:05:04,VALID,915.224,VALID,0,VALID,94.9954,VALID,0,VALID,18.7279,VALID,306,VALID,0,
2011-01-07, 03:06:04,VALID,915.218,VALID,0,VALID,95.1097,VALID,0,VALID,18.7279,VALID,306,VALID,0,
2011-01-07, 03:07:04,VALID,915.209,VALID,0,VALID,95.2012,VALID,0,VALID,18.7279,VALID,306,VALID,0.646484,
2011-01-07, 03:08:04,VALID,915.193,VALID,0,VALID,95.2088,VALID,0,VALID,18.7084,VALID,306,VALID,0.708984,
2011-01-07, 03:09:04,VALID,915.223,VALID,0,VALID,95.2698,VALID,0,VALID,18.6903,VALID,305,VALID,0.391406,
2011-01-07, 03:10:04,VALID,915.184,VALID,0,VALID,95.3994,VALID,0,VALID,18.6694,VALID,305,VALID,0.249219,
2011-01-07, 03:11:04,VALID,915.182,VALID,0,VALID,95.4452,VALID,0,VALID,18.6694,VALID,306,VALID,0,
2011-01-07, 03:12:04,VALID,915.21,VALID,0,VALID,95.4985,VALID,0,VALID,18.6694,VALID,306,VALID,0,
2011-01-07, 03:13:04,VALID,915.169,VALID,0,VALID,95.5062,VALID,0,VALID,18.6499,VALID,306,VALID,0,
2011-01-07, 03:14:04,VALID,915.165,VALID,0,VALID,95.468,VALID,0,VALID,18.6499,VALID,306,VALID,0.0375,
2011-01-07, 03:15:04,VALID,915.13,VALID,0,VALID,95.468,VALID,0,VALID,18.6513,VALID,306,VALID,0.346094,
2011-01-07, 03:16:04,VALID,915.132,VALID,0,VALID,95.4985,VALID,0,VALID,18.6109,VALID,306,VALID,0.557422,
2011-01-07, 03:17:04,VALID,915.193,VALID,0,VALID,95.6205,VALID,0,VALID,18.6304,VALID,306,VALID,0.879297,
2011-01-07, 03:18:04,VALID,915.152,VALID,0,VALID,95.7654,VALID,0,VALID,18.6903,VALID,6,VALID,1.45547,
2011-01-07, 03:19:04,VALID,915.159,VALID,0,VALID,95.6739,VALID,0,VALID,18.7279,VALID,6,VALID,0.994922,
2011-01-07, 03:20:04,VALID,915.13,VALID,0,VALID,95.5443,VALID,0,VALID,18.7669,VALID,6,VALID,1.07305,
2011-01-07, 03:21:04,VALID,915.139,VALID,0,VALID,95.3918,VALID,0,VALID,18.8059,VALID,7,VALID,1.60195,
2011-01-07, 03:22:04,VALID,915.141,VALID,0,VALID,95.2775,VALID,0,VALID,18.8644,VALID,329,VALID,1.19492,
2011-01-07, 03:23:04,VALID,915.128,VALID,0,VALID,95.0716,VALID,0,VALID,18.9034,VALID,7,VALID,1.03203,
2011-01-07, 03:24:04,VALID,915.138,VALID,0,VALID,94.8887,VALID,0,VALID,18.9229,VALID,7,VALID,0.867969,
2011-01-07, 03:25:04,VALID,915.194,VALID,0,VALID,94.7057,VALID,0,VALID,18.9424,VALID,7,VALID,0.635547,
2011-01-07, 03:26:04,VALID,915.224,VALID,0,VALID,94.6676,VALID,0,VALID,18.9229,VALID,7,VALID,0.661719,
2011-01-07, 03:27:04,VALID,915.287,VALID,0,VALID,94.7438,VALID,0,VALID,18.9619,VALID,7,VALID,0.754687,
2011-01-07, 03:28:04,VALID,915.279,VALID,0,VALID,94.7438,VALID,0,VALID,18.9424,VALID,7,VALID,0.811328,
2011-01-07, 03:29:04,VALID,915.325,VALID,0,VALID,94.7514,VALID,0,VALID,18.9424,VALID,7,VALID,0.594141,
2011-01-07, 03:30:04,VALID,915.283,VALID,0,VALID,94.8277,VALID,0,VALID,18.9633,VALID,319,VALID,1.37578,
2011-01-07, 03:31:04,VALID,915.309,VALID,0,VALID,94.8582,VALID,0,VALID,18.9424,VALID,353,VALID,0.846094,
2011-01-07, 03:32:04,VALID,915.328,VALID,0,VALID,94.8658,VALID,0,VALID,18.9619,VALID,353,VALID,0.453125,
2011-01-07, 03:33:04,VALID,915.314,VALID,0,VALID,94.8277,VALID,0,VALID,18.9814,VALID,353,VALID,0.655469,
2011-01-07, 03:34:04,VALID,915.276,VALID,0,VALID,94.7896,VALID,0,VALID,19.0023,VALID,352,VALID,0.991016,
2011-01-07, 03:35:04,VALID,915.268,VALID,0,VALID,94.8505,VALID,0,VALID,19.0008,VALID,329,VALID,1.1082,
2011-01-07, 03:36:04,VALID,915.283,VALID,0,VALID,94.7743,VALID,0,VALID,19.0398,VALID,329,VALID,0.274609,
2011-01-07, 03:37:04,VALID,915.305,VALID,0,VALID,94.66,VALID,0,VALID,19.0398,VALID,329,VALID,0,
2011-01-07, 03:38:04,VALID,915.312,VALID,0,VALID,94.5609,VALID,0,VALID,19.0398,VALID,330,VALID,0,
2011-01-07, 03:39:04,VALID,915.299,VALID,0,VALID,94.4389,VALID,0,VALID,19.0413,VALID,329,VALID,0.823828,
2011-01-07, 03:40:04,VALID,915.299,VALID,0,VALID,94.4999,VALID,0,VALID,19.0218,VALID,329,VALID,0.986719,
2011-01-07, 03:41:04,VALID,915.319,VALID,0,VALID,94.599,VALID,0,VALID,18.9619,VALID,329,VALID,0.336328,
2011-01-07, 03:42:04,VALID,915.264,VALID,0,VALID,94.6981,VALID,0,VALID,18.9619,VALID,329,VALID,0.250391,
2011-01-07, 03:43:04,VALID,915.263,VALID,0,VALID,94.7362,VALID,0,VALID,18.9229,VALID,329,VALID,0.301953,
2011-01-07, 03:44:04,VALID,915.268,VALID,0,VALID,94.8658,VALID,0,VALID,18.9034,VALID,329,VALID,0.417188,
2011-01-07, 03:45:04,VALID,915.275,VALID,0,VALID,94.9192,VALID,0,VALID,18.9034,VALID,329,VALID,0.0988281,
2011-01-07, 03:46:04,VALID,915.283,VALID,0,VALID,95.0106,VALID,0,VALID,18.8644,VALID,329,VALID,0.146875,